User: anonymous   Login
Location: Unspecified
(0.0000°N, 0.0000°E)
Time: 22:39:38
(UTC+00:00)
Language:

STARLINK-3088 - Orbit

View from above orbital plane
View from above orbital plane
View from above satellite
View from above satellite

Ground track
Ground track

The orbit is defined by the following mean orbital elements,

1 49163U          26145.52948363 +.00000000 +00000-0 +85224-4 0 00009
2 49163  70.0002  81.7477 0003066 270.5668  89.5139 14.97533210    07
Epoch (UTC): 25 May 2026 12:42:27
Eccentricity: 0.0003066
inclination: 70.0002°
perigee height: 572 km
apogee height: 577 km
right ascension of ascending node: 81.7477°
argument of perigee: 270.5668°
revolutions per day: 14.97533210
mean anomaly at epoch: 89.5139°

The dashed part of the orbit path shows where the satellite is in the earth's shadow,  

DLR